Location: Gila Cliff Dwellings National Monument
(33.2240°N, 108.2417°W)
Time: 08:15:45
(UTC-06:00)

Cosmos 2322 Rocket - Visible Passes

Search period start: 01 October 2014 00:00
Search period end: 11 October 2014 00:00
Orbit: 833 x 851 km, 71.0° (Epoch: 30 September)

Date Brightness Start Highest point End Pass type
(mag) Time Alt. Az. Time Alt. Az. Time Alt. Az.
03 Oct 4.2 06:40:53 10° N 06:45:56 32° ENE 06:50:58 10° SE visible
03 Oct 3.9 19:46:35 10° SE 19:47:34 12° ESE 19:47:34 12° ESE visible
03 Oct 3.8 21:27:18 10° SSW 21:29:36 25° SW 21:29:36 25° SW visible
04 Oct 4.2 06:26:01 10° N 06:31:00 31° ENE 06:35:58 10° ESE visible
04 Oct 3.7 19:32:00 10° SE 19:34:30 13° E 19:36:16 12° ENE visible
04 Oct 2.5 21:12:21 10° SSW 21:17:53 63° WNW 21:18:21 61° NW visible
05 Oct 4.3 06:11:10 10° N 06:16:04 29° ENE 06:20:56 10° ESE visible
05 Oct 3.8 19:17:27 10° ESE 19:19:37 12° E 19:21:48 10° ENE visible
05 Oct 2.4 20:57:25 10° SSW 21:02:58 67° WNW 21:08:34 10° NNE visible
06 Oct 4.3 05:56:19 10° N 06:01:07 28° ENE 06:05:55 10° ESE visible
06 Oct 2.3 20:42:28 10° SSW 20:48:02 71° WNW 20:53:40 10° NNE visible
07 Oct 4.4 05:41:28 10° N 05:46:11 26° ENE 05:50:52 10° ESE visible
07 Oct 2.3 20:27:32 10° SSW 20:33:07 75° WNW 20:38:45 10° NNE visible
08 Oct 4.4 05:26:38 10° N 05:31:15 25° ENE 05:35:50 10° ESE visible
08 Oct 2.2 20:12:37 10° SSW 20:18:12 80° WNW 20:23:51 10° NNE visible
09 Oct 4.4 05:11:48 10° N 05:16:18 24° ENE 05:20:47 10° ESE visible
09 Oct 2.2 19:57:41 10° SSW 20:03:17 84° WNW 20:08:56 10° NNE visible
10 Oct 4.5 04:56:58 10° N 05:01:21 22° ENE 05:05:44 10° ESE visible
10 Oct 2.6 06:40:12 10° NW 06:45:32 43° WSW 06:50:52 10° S visible
10 Oct 2.2 19:42:46 10° SSW 19:48:22 88° WNW 19:54:01 10° NNE visible
10 Oct 5.2 21:31:59 10° WNW 21:33:11 11° NW 21:34:24 10° NW visible
